Starlink 2494

operational
NORAD ID: 48487 Int'l Des: 2021-040 Owner: SPXS Country: US Constellation: starlink
LEOCIRCULARSTARLINK_TYPE

关于 Starlink 2494

正在加载描述...

实时位置

正在加载3D地球...

即将过境

高度历史

Altitude vs Time

uPlot chart will show altitude changes over time

两行轨道根数

1 48487U 21040BM 25307.97433382 .00004221 00000-0 30209-3 0 9990
2 48487 53.0548 45.9755 0001750 83.7242 276.3946 15.06400049247405
Epoch: Nov 3, 2025 • Age: 14 hours

当前状态

高度 559.3 km
速度 7.58 km/s
星下点 -35.39°S, 124.54°E
发射日期 May 9, 2021
运行时间 4.4 years
类型 internet

技术详情

分类 Payload
质量 260.00 kg
干质量 248.00 kg
总质量 260.00 kg
长度 0.20 m
直径 2.80 m
跨度 9.00 m
形状 Box + pan
制造商 SPXS
平台类型 Starlink
阶段状态 In Orbit
所有者/国家 SPXS/US

大型星座

Loading constellations...